Volver al catálogo

STARLINK-35503

ActivoComunicacionesVLEO
NORAD 66245·PAYLOAD·🇺🇸 United States

Lanzado Oct 29, 2025 desde Cape Canaveral Space Force Station

Loading…

Próximos Pases (próximas 24 horas)

TLE

ActualizadoSource: CelesTrak SupGP

Época: Sep 14, 2026, 22:56 UTC

1 66245C 25245M   26257.95604167 -.00036053  00000+0 -10653-2 0  2573
2 66245  53.1570 123.6082 0001286  81.8923 164.6490 15.34404332    16

Sigue STARLINK-35503 en tiempo real con AllMySat

Download on the App Store